Weather History for Robinson, IL

Change the Weather History Date:

Sunday, January 6, 2013

  Actual Average (KLWV) Record (KLWV)
Temperature  
Mean Temperature 28 °F 31 °F  
Max Temperature 38 °F 39 °F 64 °F (2008)
Min Temperature 18 °F 23 °F -8 °F (2014)
Degree Days  
Heating Degree Days 37 34  
Month to date heating degree days 204  
Since 1 July heating degree days 2003  
Cooling Degree Days 0 0  
Month to date cooling degree days 0  
Year to date cooling degree days 0  
Moisture  
Dew Point 26 °F    
Average Humidity 79    
Maximum Humidity 95    
Minimum Humidity 66    
Precipitation  
Precipitation 0.00 in 0.10 in 0.73 in (1989)
Month to date precipitation 0.57  
Year to date precipitation 0.57  
Sea Level Pressure  
Sea Level Pressure 30.23 in    
Wind  
Wind Speed 10 mph (WSW)    
Max Wind Speed 18 mph    
Max Gust Speed 31 mph    
Visibility 9 miles    
Events      
T = Trace of Precipitation, MM = Missing Value Source: NWS Daily Summary

Daily Weather History Graph

Daily Weather History Graph

Search for Another Location

Airport:

Trip Planner

Search our weather history database for the weather conditions in past years. The results will help you decide how hot, cold, wet, or windy it might be!

Date:

Astronomy

Jan. 06, 2013 Rise Set
Actual Time 7:09 AM CST 4:43 PM CST
Civil Twilight 6:40 AM CST 5:13 PM CST
Nautical Twilight 6:06 AM CST 5:46 PM CST
Astronomical Twilight 5:34 AM CST 6:18 PM CST
Moon 1:24 AM CST (1/6) 12:09 PM CST (1/6)
Length of Visible Light 10h 33m
Length of Day
9h 33m
Waning Crescent, 33% of the Moon is Illuminated
Jan 6
Waning Crescent
Jan 11
New
Jan 18
First Quarter
Jan 26
Full
Feb 3
Last Quarter

Hourly Weather History & Observations

Time (CST) Temp. Windchill Dew Point Humidity Pressure Visibility Wind Dir Wind Speed Gust Speed Precip Events Conditions
12:15 AM 37.8 °F 29.4 °F 32.0 °F 80% 30.13 in 10.0 mi SSW 13.8 mph - N/A   Overcast
12:35 AM 37.6 °F 29.1 °F 32.0 °F 80% 30.12 in 10.0 mi SSW 13.8 mph 18.4 mph N/A   Overcast
12:55 AM 37.8 °F 30.7 °F 32.0 °F 80% 30.12 in 10.0 mi SSW 10.4 mph - N/A   Overcast
1:35 AM 37.6 °F 30.5 °F 32.0 °F 80% 30.11 in 10.0 mi SSW 10.4 mph - N/A   Overcast
1:55 AM 37.4 °F 30.3 °F 32.0 °F 81% 30.11 in 10.0 mi SSW 10.4 mph - N/A   Overcast
2:15 AM 37.4 °F 30.8 °F 32.2 °F 81% 30.11 in 10.0 mi SSW 9.2 mph - N/A   Overcast
2:35 AM 37.8 °F 30.2 °F 32.2 °F 80% 30.11 in 10.0 mi South 11.5 mph - N/A   Overcast
2:55 AM 37.8 °F 31.3 °F 32.2 °F 80% 30.11 in 10.0 mi SSW 9.2 mph - N/A   Overcast
3:15 AM 37.8 °F 30.2 °F 32.2 °F 80% 30.09 in 10.0 mi SSW 11.5 mph - N/A   Overcast
3:35 AM 38.3 °F 31.9 °F 32.2 °F 79% 30.09 in 10.0 mi South 9.2 mph - N/A   Overcast
3:55 AM 37.9 °F 30.9 °F 32.2 °F 80% 30.08 in 10.0 mi South 10.4 mph - N/A   Overcast
4:15 AM 37.9 °F 30.9 °F 32.2 °F 80% 30.07 in 10.0 mi South 10.4 mph - N/A   Overcast
4:35 AM 37.8 °F 31.8 °F 32.2 °F 80% 30.06 in 10.0 mi South 8.1 mph - N/A   Mostly Cloudy
4:55 AM 37.4 °F 30.3 °F 32.0 °F 81% 30.06 in 10.0 mi SSW 10.4 mph - N/A   Mostly Cloudy
5:15 AM 37.0 °F 30.4 °F 32.0 °F 82% 30.07 in 10.0 mi SSW 9.2 mph - N/A   Mostly Cloudy
5:35 AM 36.5 °F 29.7 °F 32.0 °F 84% 30.07 in 10.0 mi SSW 9.2 mph - N/A   Mostly Cloudy
5:55 AM 36.1 °F 29.9 °F 32.0 °F 85% 30.08 in 10.0 mi SW 8.1 mph - N/A   Scattered Clouds
6:15 AM 37.0 °F 31.0 °F 32.0 °F 82% 30.09 in 10.0 mi SSW 8.1 mph - N/A   Mostly Cloudy
6:35 AM 37.2 °F 30.6 °F 32.2 °F 82% 30.09 in 10.0 mi SSW 9.2 mph - N/A   Overcast
6:55 AM 36.9 °F 30.1 °F 32.2 °F 83% 30.10 in 10.0 mi SSW 9.2 mph - N/A   Overcast
7:15 AM 37.8 °F 30.2 °F 32.0 °F 80% 30.11 in 10.0 mi SW 11.5 mph - N/A   Overcast
7:35 AM 37.0 °F 28.5 °F 30.4 °F 77% 30.13 in 10.0 mi West 13.8 mph 31.1 mph N/A   Overcast
7:55 AM 35.8 °F 28.3 °F 28.4 °F 75% 30.13 in 10.0 mi West 10.4 mph - N/A   Overcast
8:15 AM 35.6 °F 29.9 °F 28.4 °F 75% 30.14 in 10.0 mi West 6.9 mph - N/A   Overcast
8:35 AM 35.2 °F 31.2 °F 28.2 °F 76% 30.14 in 10.0 mi West 4.6 mph - N/A   Overcast
8:55 AM 35.2 °F 25.8 °F 26.8 °F 71% 30.15 in 10.0 mi West 15.0 mph 18.4 mph N/A   Overcast
9:15 AM 35.2 °F 27.1 °F 27.0 °F 72% 30.16 in 10.0 mi West 11.5 mph - N/A   Overcast
9:35 AM 35.1 °F 27.4 °F 27.5 °F 74% 30.17 in 10.0 mi West 10.4 mph - N/A   Overcast
9:55 AM 35.1 °F 24.5 °F 26.4 °F 71% 30.17 in 10.0 mi West 18.4 mph 23.0 mph N/A   Overcast
10:15 AM 34.9 °F 27.7 °F 27.1 °F 73% 30.18 in 10.0 mi West 9.2 mph - N/A   Overcast
10:35 AM 34.9 °F 26.2 °F 26.8 °F 72% 30.18 in 10.0 mi West 12.7 mph - N/A   Overcast
10:55 AM 34.7 °F 24.7 °F 26.2 °F 71% 30.17 in 10.0 mi West 16.1 mph 23.0 mph N/A   Overcast
11:15 AM 34.3 °F 23.9 °F 26.4 °F 73% 30.18 in 10.0 mi West 17.3 mph - N/A   Overcast
11:35 AM 34.0 °F 23.8 °F 26.2 °F 73% 30.19 in 10.0 mi WNW 16.1 mph - N/A   Overcast
11:55 AM 33.3 °F 22.8 °F 25.2 °F 72% 30.19 in 7.0 mi WNW 16.1 mph 23.0 mph N/A   Overcast
12:15 PM 32.9 °F 22.4 °F 24.8 °F 72% 30.19 in 7.0 mi WNW 16.1 mph 23.0 mph N/A   Overcast
12:35 PM 32.9 °F 21.6 °F 25.2 °F 73% 30.20 in 7.0 mi West 18.4 mph 25.3 mph N/A   Overcast
12:55 PM 32.9 °F 24.1 °F 24.8 °F 72% 30.20 in 7.0 mi West 11.5 mph - N/A   Overcast
1:15 PM 32.7 °F 22.5 °F 23.5 °F 69% 30.22 in 7.0 mi WNW 15.0 mph 24.2 mph N/A   Overcast
1:35 PM 32.9 °F 22.4 °F 23.5 °F 68% 30.23 in 10.0 mi West 16.1 mph 21.9 mph N/A   Scattered Clouds
1:55 PM 32.9 °F 23.2 °F 22.8 °F 66% 30.24 in 10.0 mi WNW 13.8 mph - N/A   Clear
2:15 PM 32.9 °F 23.7 °F 23.0 °F 67% 30.25 in 10.0 mi West 12.7 mph 19.6 mph N/A   Scattered Clouds
2:35 PM 33.1 °F 24.4 °F 23.5 °F 68% 30.26 in 10.0 mi WNW 11.5 mph - N/A   Scattered Clouds
2:55 PM 32.9 °F 23.7 °F 23.5 °F 68% 30.28 in 10.0 mi WNW 12.7 mph - N/A   Mostly Cloudy
3:15 PM 32.5 °F 23.2 °F 23.9 °F 70% 30.29 in 10.0 mi WNW 12.7 mph 16.1 mph N/A   Mostly Cloudy
3:35 PM 32.5 °F 24.2 °F 24.3 °F 72% 30.30 in 10.0 mi West 10.4 mph 19.6 mph N/A   Overcast
3:55 PM 32.2 °F 23.8 °F 24.4 °F 73% 30.31 in 10.0 mi West 10.4 mph - N/A   Overcast
4:15 PM 32.0 °F 23.6 °F 24.6 °F 74% 30.32 in 10.0 mi West 10.4 mph - N/A   Overcast
4:35 PM 32.0 °F 24.2 °F 24.8 °F 75% 30.33 in 10.0 mi West 9.2 mph - N/A   Overcast
4:55 PM 32.0 °F 24.2 °F 24.8 °F 75% 30.34 in 10.0 mi West 9.2 mph - N/A   Overcast
5:15 PM 31.1 °F 24.5 °F 24.4 °F 76% 30.34 in 10.0 mi West 6.9 mph - N/A   Mostly Cloudy
5:35 PM 30.4 °F 25.6 °F 23.9 °F 77% 30.35 in 10.0 mi West 4.6 mph - N/A   Mostly Cloudy
5:55 PM 29.3 °F 24.3 °F 23.5 °F 79% 30.36 in 10.0 mi WNW 4.6 mph - N/A   Scattered Clouds
6:15 PM 29.1 °F - 23.0 °F 78% 30.36 in 10.0 mi Calm Calm - N/A   Scattered Clouds
6:35 PM 29.7 °F 26.1 °F 23.0 °F 76% 30.36 in 10.0 mi NW 3.5 mph - N/A   Clear
6:55 PM 27.1 °F 23.2 °F 22.3 °F 82% 30.37 in 10.0 mi WSW 3.5 mph - N/A   Clear
7:15 PM 23.7 °F 19.3 °F 19.9 °F 85% 30.39 in 10.0 mi WSW 3.5 mph - N/A   Clear
7:35 PM 24.4 °F - 20.8 °F 86% 30.39 in 10.0 mi Calm Calm - N/A   Clear
7:55 PM 23.7 °F - 21.0 °F 89% 30.40 in 10.0 mi Calm Calm - N/A   Clear
8:15 PM 22.8 °F - 19.9 °F 89% 30.40 in 10.0 mi Calm Calm - N/A   Clear
8:35 PM 22.3 °F - 19.6 °F 89% 30.40 in 7.0 mi Calm Calm - N/A   Clear
8:55 PM 22.1 °F - 19.8 °F 91% 30.41 in 7.0 mi Calm Calm - N/A   Clear
9:55 PM 20.1 °F - 18.1 °F 92% 30.41 in 7.0 mi Calm Calm - N/A   Clear
10:15 PM 20.1 °F - 18.1 °F 92% 30.42 in 7.0 mi Calm Calm - N/A   Clear
10:35 PM 19.0 °F - 17.4 °F 93% 30.42 in 5.0 mi Calm Calm - N/A   Clear
10:55 PM 19.9 °F - 18.7 °F 95% 30.41 in 5.0 mi Calm Calm - N/A   Clear
11:15 PM 18.5 °F - 16.9 °F 93% 30.41 in 5.0 mi Calm Calm - N/A   Clear
11:35 PM 18.1 °F - 16.5 °F 93% 30.41 in 4.0 mi Calm Calm - N/A   Clear
11:55 PM 18.0 °F - 16.3 °F 93% 30.41 in 4.0 mi Calm Calm - N/A   Clear